Weather History for KPSM - June, 2013

Change the Weather History Date:

Tuesday, June 25, 2013

  Actual Average Record
Temperature  
Mean Temperature 79 °F -  
Max Temperature 90 °F 77 °F 92 °F (1980)
Min Temperature 68 °F 58 °F 45 °F (1982)
Cooling Degree Days 14    
Growing Degree Days 29 (Base 50)    
Moisture  
Dew Point 69 °F    
Average Humidity 76    
Maximum Humidity 100    
Minimum Humidity 47    
Precipitation  
Precipitation 0.28 in - - ()
Sea Level Pressure  
Sea Level Pressure 29.80 in    
Wind  
Wind Speed 8 mph (WSW)    
Max Wind Speed 13 mph    
Max Gust Speed 22 mph    
Visibility 8 miles    
Events Rain , Thunderstorm    
Averages and records for this station are not official NWS values.
T = Trace of Precipitation, MM = Missing Value Source: NWS Daily Summary

Daily Weather History Graph

Daily Weather History Graph

Search for Another Location

Airport or City:

Trip Planner

Search our weather history database for the weather conditions in past years. The results will help you decide how hot, cold, wet, or windy it might be!

Date:

Astronomy

Jun. 25, 2013 Rise Set
Actual Time 5:05 AM EDT 8:26 PM EDT
Civil Twilight 4:29 AM EDT 9:02 PM EDT
Nautical Twilight 3:43 AM EDT 9:48 PM EDT
Astronomical Twilight 2:46 AM EDT 10:45 PM EDT
Moon 10:04 PM EDT (6/25) 7:45 AM EDT (6/25)
Length of Visible Light 16h 32m
Length of Day
15h 21m
Waning Gibbous, 93% of the Moon is Illuminated
Jun 25
Waning Gibbous
Jun 30
Last Quarter
Jul 8
New
Jul 15
First Quarter
Jul 22
Full

Hourly Weather History & Observations

Time (EDT) Temp. Heat Index Dew Point Humidity Pressure Visibility Wind Dir Wind Speed Gust Speed Precip Events Conditions
12:58 AM 70.5 °F - 67.5 °F 90% 29.90 in 8.0 mi West 9.2 mph - N/A   Scattered Clouds
1:58 AM 69.8 °F - 67.1 °F 91% 29.87 in 10.0 mi SW 5.8 mph - N/A   Mostly Cloudy
2:58 AM 70.3 °F - 66.9 °F 89% 29.87 in 10.0 mi WSW 9.2 mph - N/A   Mostly Cloudy
3:58 AM 68.9 °F - 66.9 °F 93% 29.87 in 10.0 mi WSW 5.8 mph - N/A   Mostly Cloudy
4:58 AM 69.1 °F - 66.4 °F 91% 29.87 in 10.0 mi WSW 9.2 mph - N/A   Overcast
5:58 AM 69.4 °F - 66.4 °F 90% 29.87 in 10.0 mi WSW 5.8 mph - N/A   Mostly Cloudy
6:58 AM 71.2 °F - 67.1 °F 87% 29.87 in 10.0 mi WSW 5.8 mph - N/A   Scattered Clouds
7:58 AM 74.7 °F - 67.5 °F 78% 29.87 in 10.0 mi WSW 8.1 mph - N/A   Mostly Cloudy
8:58 AM 78.1 °F - 68.2 °F 71% 29.86 in 10.0 mi WSW 6.9 mph - N/A   Mostly Cloudy
9:55 AM 81.3 °F 84.3 °F 68.5 °F 65% 29.85 in 10.0 mi WSW 9.2 mph - N/A   Mostly Cloudy
10:55 AM 84.0 °F 88.4 °F 70.0 °F 63% 29.85 in 10.0 mi West 9.2 mph - N/A   Mostly Cloudy
11:58 AM 86.5 °F 91.8 °F 70.7 °F 59% 29.85 in 10.0 mi WSW 6.9 mph - N/A   Mostly Cloudy
12:58 PM 88.3 °F 93.6 °F 70.5 °F 55% 29.83 in 10.0 mi West 6.9 mph - N/A   Mostly Cloudy
1:58 PM 89.4 °F 94.8 °F 70.0 °F 53% 29.80 in 10.0 mi WSW 10.4 mph - N/A   Mostly Cloudy
2:58 PM 90.0 °F 95.4 °F 70.2 °F 52% 29.77 in 10.0 mi SW 12.7 mph - N/A   Mostly Cloudy
3:58 PM 90.1 °F 93.5 °F 67.3 °F 47% 29.75 in 10.0 mi SW 11.5 mph - N/A   Mostly Cloudy
4:58 PM 89.6 °F 93.4 °F 68.4 °F 49% 29.74 in 10.0 mi SW 9.2 mph - N/A   Mostly Cloudy
5:58 PM 86.4 °F 89.0 °F 67.1 °F 52% 29.72 in 10.0 mi SSW 8.1 mph - N/A   Mostly Cloudy
6:58 PM 84.9 °F 87.6 °F 67.3 °F 55% 29.72 in 10.0 mi SSW 6.9 mph - N/A   Mostly Cloudy
7:58 PM 83.1 °F 85.9 °F 67.6 °F 59% 29.71 in 8.0 mi North 9.2 mph - N/A Rain , Thunderstorm Light Rain Showers
8:11 PM 80.6 °F 83.2 °F 68.0 °F 65% 29.72 in 7.0 mi NNW 8.1 mph 21.9 mph N/A Rain , Thunderstorm Light Thunderstorms and Rain
8:50 PM 71.6 °F - 69.8 °F 94% 29.76 in 2.0 mi WNW 9.2 mph - N/A Rain , Thunderstorm Heavy Thunderstorms and Rain
8:58 PM 72.0 °F - 70.2 °F 94% 29.76 in 2.0 mi NNW 9.2 mph - 0.13 in Rain , Thunderstorm Thunderstorms and Rain
9:16 PM 71.6 °F - 69.8 °F 94% 29.73 in 6.0 mi North 12.7 mph - N/A Rain , Thunderstorm Light Thunderstorms and Rain
9:58 PM 70.9 °F - 70.2 °F 98% 29.76 in 5.0 mi West 5.8 mph - 0.13 in Rain , Thunderstorm Light Rain Showers
10:58 PM 70.5 °F - 70.2 °F 99% 29.74 in 5.0 mi SE 4.6 mph - 0.02 in Rain Light Rain Showers
11:21 PM 69.8 °F - 69.8 °F 100% 29.73 in 3.0 mi South 4.6 mph - N/A   Overcast
11:58 PM 70.3 °F - 70.0 °F 99% 29.74 in 3.0 mi SW 4.6 mph - 0.00 in   Overcast